Location: Fort Worth, Tx
(32.7431°N, 97.3695°W)
Time: 05:57:04
(UTC-05:00)

Altair - Pass Details

Date: 08 October 2023
Orbit: 1501 x 1682 km, 47.2° (Epoch: 06 December)

Event Time Altitude Azimuth Distance (km) Brightness Sun altitude
Rises 03:24:17 0° 259° (W) 4,707 - -58.9°
Reaches altitude 10° 03:27:29 10° 266° (W) 3,748 - -58.5°
Maximum altitude 03:36:35 47° 338° (NNW) 2,038 - -57.3°
Exits shadow 03:42:29 24° 38° (NE) 2,920 9.1 -56.5°
Drops below altitude 10° 03:46:04 10° 50° (NE) 3,891 10.0 -56.0°
Sets 03:49:28 0° 56° (ENE) 4,899 10.7 -55.6°
